Location: Unspecified
(49.2170°N, 0.0000°E)
Time: 19:00:43
(UTC+00:00)

Vanguard 3 - Pass Details

Date: 30 June 2019
Orbit: 507 x 3264 km, 33.4° (Epoch: 15 July)

Event Time Altitude Azimuth Distance (km) Brightness Sun altitude
Rises 13:07:01 0° 266° (W) 6,320 11.9 61.1°
Reaches altitude 10° 13:12:41 10° 256° (WSW) 4,821 11.6 60.6°
Maximum altitude 13:21:58 25° 209° (SSW) 2,856 11.0 59.7°
Drops below altitude 10° 13:28:12 10° 158° (SSE) 3,120 10.5 59.1°
Sets 13:30:59 0° 144° (SE) 3,746 10.6 58.8°
